Location: Eferding
(48.3167°N, 14.0167°E)
Time: 13:02:14
(UTC+00:00)

TSX-5 - Visible Passes

Search period start: 18 February 2020 00:00
Search period end: 28 February 2020 00:00
Orbit: 400 x 1335 km, 68.9° (Epoch: 17 February)

Date Brightness Start Highest point End Pass type
(mag) Time Alt. Az. Time Alt. Az. Time Alt. Az.
18 Feb 7.3 01:25:07 10° NNW 01:31:09 22° NNE 01:36:30 10° ENE visible
18 Feb 5.7 03:10:24 10° NNW 03:18:02 57° NE 03:24:11 10° SE visible
18 Feb 5.6 04:56:07 10° NW 05:02:40 36° WSW 05:08:02 10° SSW visible
18 Feb 5.8 18:08:07 10° S 18:15:34 47° ESE 18:23:29 10° NE visible
18 Feb 6.1 19:52:42 10° SW 20:00:40 56° NW 20:08:50 10° NNE visible
18 Feb 7.4 21:41:09 10° WNW 21:47:36 24° NNW 21:53:53 10° NNE visible
18 Feb 7.7 23:31:00 10° NW 23:35:50 16° N 23:40:24 10° NE visible
19 Feb 7.2 01:17:55 10° NNW 01:24:02 23° NNE 01:29:25 10° ENE visible
19 Feb 5.6 03:03:11 10° NNW 03:10:50 61° NE 03:16:55 10° SE visible
19 Feb 5.7 04:48:59 10° NW 04:55:19 33° WSW 05:00:30 10° SSW visible
19 Feb 5.7 18:00:42 10° S 18:08:17 51° ESE 18:16:17 10° NE visible
19 Feb 6.2 19:45:32 10° SW 19:53:29 53° NW 20:01:35 10° NNE visible
19 Feb 7.5 21:34:11 10° WNW 21:40:30 23° NNW 21:46:38 10° NNE visible
19 Feb 7.7 23:24:00 10° NW 23:28:46 16° N 23:33:17 10° NE visible
20 Feb 7.2 01:10:44 10° NNW 01:16:55 24° NNE 01:22:19 10° E visible
20 Feb 5.4 02:55:58 10° NNW 03:03:36 65° NE 03:09:39 10° SE visible
20 Feb 5.8 04:41:53 10° NW 04:47:56 30° WSW 04:52:57 10° SSW visible
20 Feb 5.7 17:53:18 10° S 18:01:01 55° ESE 18:09:05 10° NE visible
20 Feb 6.4 19:38:24 10° WSW 19:46:18 50° NW 19:54:19 10° NNE visible
20 Feb 7.5 21:27:13 10° WNW 21:33:24 22° NNW 21:39:24 10° NNE visible
20 Feb 7.7 23:16:57 10° NNW 23:21:42 16° N 23:26:11 10° NE visible
21 Feb 7.1 01:03:33 10° NNW 01:09:48 25° NNE 01:15:13 10° E visible
21 Feb 5.3 02:48:46 10° NNW 02:56:22 70° NE 03:02:21 10° SE visible
21 Feb 5.8 04:34:48 10° NW 04:40:33 27° W 04:45:22 10° SSW visible
21 Feb 5.7 17:45:56 10° S 17:53:44 59° ESE 18:01:53 10° NE visible
21 Feb 6.5 19:31:15 10° WSW 19:39:08 48° NW 19:47:03 10° NNE visible
21 Feb 7.6 21:20:16 10° WNW 21:26:18 21° NNW 21:32:09 10° NNE visible
21 Feb 7.7 23:09:55 10° NNW 23:14:38 16° N 23:18:21 12° NE visible
22 Feb 7.1 00:56:21 10° NNW 01:04:31 23° NE 01:08:06 10° E visible
22 Feb 5.2 02:41:33 10° NNW 02:49:07 75° NE 02:55:03 10° SE visible
22 Feb 5.9 04:30:05 18° WNW 04:33:10 24° W 04:37:45 10° SSW visible
22 Feb 5.7 17:38:34 10° SSW 17:46:27 63° ESE 17:54:39 10° NE visible
22 Feb 6.6 19:24:08 10° WSW 19:31:57 45° NW 19:39:47 10° NNE visible
22 Feb 7.6 21:13:19 10° WNW 21:19:13 21° NNW 21:24:54 10° NNE visible
22 Feb 7.7 23:02:51 10° NNW 23:07:34 16° N 23:09:45 14° NNE visible
23 Feb 7.4 00:49:09 10° NNW 01:02:07 - E 00:52:04 19° N visible
23 Feb 6.0 02:34:20 10° NNW 02:44:45 34° SE 02:47:44 10° SE visible
23 Feb 6.1 04:27:22 20° WSW 04:27:22 20° WSW 04:30:06 10° SW visible
23 Feb 5.7 17:31:12 10° SSW 17:39:11 67° ESE 17:47:26 10° NE visible
23 Feb 6.7 19:17:01 10° WSW 19:24:48 43° NW 19:32:31 10° NNE visible
23 Feb 7.6 21:06:21 10° WNW 21:12:07 20° NNW 21:17:40 10° NNE visible
23 Feb 7.7 22:55:47 10° NNW 23:00:29 16° N 23:02:05 15° NNE visible
24 Feb 7.4 00:41:56 10° NNW 00:44:24 18° N 00:44:24 18° N visible
24 Feb7.402:41:07SSE02:41:07SSE02:26:43NNWvisible
24 Feb 5.7 17:23:52 10° SSW 17:31:55 72° ESE 17:40:11 10° NE visible
24 Feb 6.8 19:09:55 10° WSW 19:17:38 40° NW 19:25:14 10° NNE visible
24 Feb 7.7 20:59:24 10° WNW 21:05:02 19° NNW 21:10:24 10° NNE visible
24 Feb 7.6 22:48:42 10° NNW 22:53:24 16° N 22:54:38 16° NNE visible
25 Feb 7.5 00:34:43 10° NNW 00:36:58 18° NNW 00:36:58 18° NNW visible
25 Feb 5.7 17:16:33 10° SSW 17:24:40 76° ESE 17:32:57 10° NNE visible
25 Feb 6.9 19:02:50 10° WSW 19:10:29 38° NW 19:17:57 10° NNE visible
25 Feb 7.7 20:52:27 10° WNW 20:57:56 19° NNW 21:03:09 10° NNE visible
25 Feb 7.6 22:41:36 10° NNW 22:46:18 16° N 22:47:16 16° NNE visible
26 Feb 7.5 00:27:30 10° NNW 00:29:35 17° NNW 00:29:35 17° NNW visible
26 Feb 5.7 17:09:14 10° SSW 17:17:25 81° ESE 17:25:42 10° NNE visible
26 Feb 7.0 18:55:45 10° WSW 19:03:19 37° NW 19:10:40 10° NNE visible
26 Feb 7.7 20:45:31 10° WNW 20:50:52 18° NNW 20:55:54 10° NNE visible
26 Feb 7.6 22:34:30 10° NNW 22:39:13 17° N 22:39:56 16° NNE visible
27 Feb 7.5 00:20:16 10° NNW 00:22:17 17° NNW 00:22:17 17° NNW visible
27 Feb 5.7 17:01:56 10° SSW 17:10:10 86° ESE 17:18:26 10° NNE visible
27 Feb 7.0 18:48:41 10° WSW 18:56:09 35° NW 19:03:23 10° NNE visible
27 Feb 7.7 20:38:35 10° NW 20:43:46 18° NNW 20:48:39 10° NNE visible
27 Feb 7.5 22:27:23 10° NNW 22:32:07 17° NNE 22:32:38 17° NNE visible
